Terminal Aerodrome Forecast
Issued by NWS

Current Version | Previous Version | Graphics & Text | Print | Product List | Glossary On
Versions: 1 2 3 4 5 6 7 8 9 10 11 12 13 14 15 16 17 18 19 20 21
000
FTUS41 KRLX 190526
TAFCKB
TAF
KCKB 190526Z 1906/2006 00000KT P6SM FEW250
     FM191400 22005KT P6SM SKC=

USA.gov is the U.S. government's official web portal to all federal, state and local government web resources and services.